Terminal Aerodrome Forecast
Issued by NWS

Home | Current Version | Previous Version | Text Only | Print | Product List | Glossary On
Versions: 1 2 3 4 5 6 7 8 9 10 11 12 13
000
FTUS46 KLOX 281700
TAFSBP
TAF
KSBP 281722Z 2818/2918 15003KT P6SM SKC
     FM282100 31008KT P6SM SKC
     FM290300 VRB03KT P6SM SCT200
     FM290900 VRB03KT P6SM BKN010=

USA.gov is the U.S. government's official web portal to all federal, state and local government web resources and services.